Location: Unspecified
(54.1780°N, 0.0000°E)
Time: 02:17:12
(UTC+00:00)

S-56A Canister/Altair - Pass Details

Date: 18 June 2019
Orbit: 632 x 2500 km, 38.9° (Epoch: 15 July)

Event Time Altitude Azimuth Distance (km) Brightness Sun altitude
Rises 17:48:44 0° 226° (SW) 4,203 11.8 20.6°
Reaches altitude 10° 17:53:13 10° 206° (SSW) 2,853 10.7 19.9°
Maximum altitude 17:56:50 15° 173° (S) 2,208 9.8 19.4°
Drops below altitude 10° 17:59:55 10° 138° (SE) 2,351 9.6 19.0°
Sets 18:03:03 0° 114° (ESE) 3,094 10.0 18.5°
